Weather History for CWGP - July, 2013

Change the Weather History Date:

Monday, July 1, 2013

  Actual Average Record
Temperature  
Mean Temperature 74 °F -  
Max Temperature 97 °F - - ()
Min Temperature 52 °F - - ()
Cooling Degree Days 10    
Growing Degree Days 24 (Base 50)    
Moisture  
Dew Point 56 °F    
Average Humidity 63    
Maximum Humidity 96    
Minimum Humidity 14    
Precipitation  
Precipitation 0.00 in - - ()
Sea Level Pressure  
Sea Level Pressure 29.93 in    
Wind  
Wind Speed - ()    
Max Wind Speed -    
Max Gust Speed -    
T = Trace of Precipitation, MM = Missing Value Source: Averaged Metar Reports

Daily Weather History Graph

Daily Weather History Graph

Search for Another Location

Airport or City:

Trip Planner

Search our weather history database for the weather conditions in past years. The results will help you decide how hot, cold, wet, or windy it might be!

Date:

Astronomy

Jul. 01, 2013 Rise Set
Actual Time 5:04 AM PDT 9:24 PM PDT
Civil Twilight 4:19 AM PDT 10:09 PM PDT
Nautical Twilight 3:14 AM PDT 11:14 PM PDT
Astronomical Twilight 1:47 AM PDT 12:42 AM PDT
Moon 1:02 AM PDT (7/1) 3:24 PM PDT (7/1)
Length of Visible Light 17h 49m
Length of Day
16h 20m
Waning Crescent, 34% of the Moon is Illuminated
Jul 1
Waning Crescent
Jul 8
New
Jul 15
First Quarter
Jul 22
Full
Jul 29
Last Quarter

Hourly Weather History & Observations

Time (PDT) Temp. Heat Index Dew Point Humidity Pressure Visibility Wind Dir Wind Speed Gust Speed Precip Events Conditions
12:00 AM 59.4 °F - 57.0 °F 92% 29.96 in - North - - N/A   Unknown
1:00 AM 57.6 °F - 55.8 °F 94% 29.97 in - North - - N/A   Unknown
2:00 AM 56.3 °F - 54.7 °F 94% 29.99 in - North - - N/A   Unknown
3:00 AM 55.4 °F - 54.0 °F 95% 29.99 in - North - - N/A   Unknown
4:00 AM 54.3 °F - 52.9 °F 95% 30.00 in - North - - N/A   Unknown
5:00 AM 53 °F - 52 °F 94% 30.01 in - Calm Calm - -  
5:00 AM 53.2 °F - 52.0 °F 95% 30.01 in - North - - N/A   Unknown
6:00 AM 53.2 °F - 52.0 °F 95% 30.02 in - North - - N/A   Unknown
7:00 AM 55.4 °F - 54.1 °F 96% 30.04 in - North - - N/A   Unknown
8:00 AM 61.9 °F - 56.5 °F 82% 30.04 in - North - - N/A   Unknown
9:00 AM 69.4 °F - 52.0 °F 54% 30.03 in - North - - N/A   Unknown
10:00 AM 73.6 °F - 53.1 °F 49% 30.00 in - North - - N/A   Unknown
11:00 AM 79 °F - 49 °F 25% 29.96 in - Calm Calm - -  
11:00 AM 78.6 °F - 49.3 °F 36% 29.96 in - North - - N/A   Unknown
12:00 PM 82.4 °F - 50.4 °F 33% 29.94 in - North - - N/A   Unknown
1:00 PM 85.6 °F - 48.0 °F 27% 29.92 in - North - - N/A   Unknown
2:00 PM 84.4 °F 83.2 °F 55.8 °F 37% 29.91 in - North - - N/A   Unknown
3:00 PM 81.5 °F 83.6 °F 65.8 °F 59% 29.87 in - North - - N/A   Unknown
4:00 PM 92.3 °F 91.6 °F 59.2 °F 33% 29.85 in - North - - N/A   Unknown
5:00 PM 97 °F - 53 °F 14% 29.84 in - Calm Calm - -  
5:00 PM 97.2 °F 94.9 °F 53.1 °F 23% 29.84 in - North - - N/A   Unknown
6:00 PM 95.0 °F 97.0 °F 64.0 °F 36% 29.83 in - North - - N/A   Unknown
7:00 PM 90.5 °F 95.1 °F 69.1 °F 49% 29.82 in - North - - N/A   Unknown
8:00 PM 81.5 °F 84.6 °F 68.9 °F 65% 29.83 in - North - - N/A   Unknown
9:00 PM 77.0 °F - 61.7 °F 59% 29.84 in - North - - N/A   Unknown
10:00 PM 70.2 °F - 63.7 °F 80% 29.87 in - North - - N/A   Unknown
11:00 PM 67 °F - 62 °F 79% 29.90 in - Calm Calm - -  
11:00 PM 67.1 °F - 62.1 °F 84% 29.90 in - North - - N/A   Unknown